| time (UTC) | temp F | wind direction | speed MPH | gust MPH | rain 1hr in | rain 24hr in | rain mn in | humidity % | barometer mb |
| 20260904205806 | 101 | 155 | 5.0 | 12.0 | 0.00 | 0.00 | 0.00 | 26 | 1013.4 |
| 20260904205309 | 101 | 149 | 6.0 | 14.0 | 0.00 | 0.00 | 0.00 | 27 | 1013.5 |
| 20260904205054 | 101 | 117 | 6.0 | 14.0 | 0.00 | 0.00 | 0.00 | 26 | 1013.5 |
| 20260904204407 | 100 | 234 | 4.0 | 12.0 | 0.00 | 0.00 | 0.00 | 27 | 1013.5 |
| 20260904203305 | 100 | 234 | 6.0 | 13.0 | 0.00 | 0.00 | 0.00 | 27 | 1013.6 |
| 20260904203117 | 100 | 175 | 7.0 | 11.0 | 0.00 | 0.00 | 0.00 | 28 | 1013.8 |
| 20260904202307 | 98 | 121 | 5.0 | 9.0 | 0.00 | 0.00 | 0.00 | 30 | 1013.8 |
| 20260904201806 | 100 | 137 | 4.0 | 7.0 | 0.00 | 0.00 | 0.00 | 27 | 1013.9 |
| 20260904201305 | 101 | 117 | 3.0 | 9.0 | 0.00 | 0.00 | 0.00 | 28 | 1014.0 |
| 20260904200806 | 100 | 142 | 5.0 | 15.0 | 0.00 | 0.00 | 0.00 | 27 | 1014.0 |
| 20260904200305 | 101 | 127 | 5.0 | 15.0 | 0.00 | 0.00 | 0.00 | 28 | 1014.2 |
| 20260904195805 | 100 | 180 | 5.0 | 12.0 | 0.00 | 0.00 | 0.00 | 29 | 1014.0 |
| 20260904195306 | 99 | 142 | 3.0 | 11.0 | 0.00 | 0.00 | 0.00 | 30 | 1014.4 |
| 20260904194807 | 98 | 244 | 6.0 | 11.0 | 0.00 | 0.00 | 0.00 | 30 | 1014.4 |
| 20260904194305 | 99 | 245 | 4.0 | 7.0 | 0.00 | 0.00 | 0.00 | 29 | 1014.4 |
| 20260904194036 | 100 | 244 | 2.0 | 6.0 | 0.00 | 0.00 | 0.00 | 29 | 1014.6 |
| 20260904193934 | 100 | 138 | 3.0 | 7.0 | 0.00 | 0.00 | 0.00 | 28 | 1014.4 |
| 20260904192805 | 99 | 114 | 3.0 | 13.0 | 0.00 | 0.00 | 0.00 | 28 | 1014.5 |
| 20260904192542 | 100 | 219 | 4.0 | 10.0 | 0.00 | 0.00 | 0.00 | 28 | 1014.6 |
| 20260904192432 | 100 | 188 | 4.0 | 13.0 | 0.00 | 0.00 | 0.00 | 28 | 1014.6 |
| 20260904191307 | 99 | 171 | 6.0 | 10.0 | 0.00 | 0.00 | 0.00 | 29 | 1014.7 |
| 20260904191211 | 99 | 97 | 4.0 | 10.0 | 0.00 | 0.00 | 0.00 | 29 | 1014.7 |
| 20260904190304 | 100 | 172 | 4.0 | 11.0 | 0.00 | 0.00 | 0.00 | 31 | 1014.9 |
| 20260904185807 | 99 | 131 | 5.0 | 11.0 | 0.00 | 0.00 | 0.00 | 29 | 1014.9 |
| 20260904185310 | 99 | 272 | 2.0 | 6.0 | 0.00 | 0.00 | 0.00 | 30 | 1014.9 |
| 20260904184806 | 98 | 250 | 2.0 | 6.0 | 0.00 | 0.00 | 0.00 | 29 | 1015.1 |
| 20260904184306 | 98 | 175 | 3.0 | 7.0 | 0.00 | 0.00 | 0.00 | 31 | 1015.1 |
| 20260904183806 | 98 | 188 | 4.0 | 10.0 | 0.00 | 0.00 | 0.00 | 30 | 1015.3 |
| 20260904183305 | 99 | 186 | 3.0 | 10.0 | 0.00 | 0.00 | 0.00 | 31 | 1015.3 |
| 20260904182806 | 98 | 221 | 2.0 | 6.0 | 0.00 | 0.00 | 0.00 | 30 | 1015.4 |
| 20260904182306 | 99 | 220 | 3.0 | 9.0 | 0.00 | 0.00 | 0.00 | 31 | 1015.4 |
| 20260904181805 | 98 | 254 | 5.0 | 9.0 | 0.00 | 0.00 | 0.00 | 30 | 1015.4 |
| 20260904181306 | 98 | 185 | 3.0 | 10.0 | 0.00 | 0.00 | 0.00 | 31 | 1015.4 |
| 20260904181152 | 97 | 243 | 2.0 | 10.0 | 0.00 | 0.00 | 0.00 | 32 | 1015.5 |
| 20260904180306 | 98 | 219 | 3.0 | 7.0 | 0.00 | 0.00 | 0.00 | 33 | 1015.6 |
| 20260904175805 | 98 | 259 | 3.0 | 6.0 | 0.00 | 0.00 | 0.00 | 32 | 1015.5 |
| 20260904175311 | 98 | 238 | 4.0 | 6.0 | 0.00 | 0.00 | 0.00 | 33 | 1015.6 |
| 20260904174807 | 97 | 279 | 2.0 | 9.0 | 0.00 | 0.00 | 0.00 | 31 | 1015.8 |
| 20260904174305 | 97 | 193 | 3.0 | 9.0 | 0.00 | 0.00 | 0.00 | 33 | 1015.7 |
| 20260904173810 | 96 | 276 | 3.0 | 12.0 | 0.00 | 0.00 | 0.00 | 32 | 1015.8 |
| 20260904173306 | 96 | 247 | 7.0 | 12.0 | 0.00 | 0.00 | 0.00 | 33 | 1015.9 |
| 20260904172806 | 96 | 207 | 3.0 | 10.0 | 0.00 | 0.00 | 0.00 | 32 | 1015.9 |
| 20260904172306 | 96 | 240 | 4.0 | 9.0 | 0.00 | 0.00 | 0.00 | 36 | 1016.1 |
| 20260904172014 | 95 | 233 | 2.0 | 10.0 | 0.00 | 0.00 | 0.00 | 35 | 1015.9 |
| 20260904171925 | 96 | 193 | 2.0 | 7.0 | 0.00 | 0.00 | 0.00 | 34 | 1015.9 |
| 20260904171143 | 95 | 210 | 5.0 | 11.0 | 0.00 | 0.00 | 0.00 | 34 | 1016.1 |
| 20260904170537 | 95 | 241 | 4.0 | 9.0 | 0.00 | 0.00 | 0.00 | 35 | 1015.9 |
| 20260904170431 | 94 | 240 | 6.0 | 11.0 | 0.00 | 0.00 | 0.00 | 35 | 1016.1 |
| 20260904165306 | 95 | 231 | 2.0 | 9.0 | 0.00 | 0.00 | 0.00 | 37 | 1015.9 |
| 20260904164810 | 94 | 147 | 4.0 | 9.0 | 0.00 | 0.00 | 0.00 | 36 | 1015.9 |
| 20260904164639 | 94 | 259 | 5.0 | 10.0 | 0.00 | 0.00 | 0.00 | 39 | 1016.1 |
| 20260904163805 | 94 | 166 | 5.0 | 10.0 | 0.00 | 0.00 | 0.00 | 37 | 1015.9 |
| 20260904163646 | 93 | 197 | 3.0 | 6.0 | 0.00 | 0.00 | 0.00 | 38 | 1016.1 |
| 20260904162805 | 92 | 231 | 4.0 | 6.0 | 0.00 | 0.00 | 0.00 | 41 | 1015.9 |
| 20260904162307 | 92 | 257 | 2.0 | 7.0 | 0.00 | 0.00 | 0.00 | 39 | 1016.1 |
| 20260904161804 | 92 | 250 | 5.0 | 7.0 | 0.00 | 0.00 | 0.00 | 43 | 1016.1 |
| 20260904161305 | 91 | 244 | 4.0 | 7.0 | 0.00 | 0.00 | 0.00 | 44 | 1016.1 |
| 20260904160805 | 91 | 202 | 5.0 | 7.0 | 0.00 | 0.00 | 0.00 | 41 | 1015.9 |
| 20260904160656 | 90 | 248 | 1.0 | 5.0 | 0.00 | 0.00 | 0.00 | 43 | 1015.9 |
| 20260904155805 | 90 | 189 | 2.0 | 7.0 | 0.00 | 0.00 | 0.00 | 43 | 1015.8 |
| 20260904155307 | 89 | 209 | 3.0 | 7.0 | 0.00 | 0.00 | 0.00 | 44 | 1015.8 |
| 20260904154805 | 88 | 0 | 5.0 | 6.0 | 0.00 | 0.00 | 0.00 | 46 | 1015.8 |
| 20260904154308 | 88 | 0 | 3.0 | 6.0 | 0.00 | 0.00 | 0.00 | 46 | 1015.8 |
| 20260904153806 | 88 | 0 | 2.0 | 6.0 | 0.00 | 0.00 | 0.00 | 45 | 1015.7 |
| 20260904153305 | 87 | 0 | 2.0 | 7.0 | 0.00 | 0.00 | 0.00 | 48 | 1015.7 |
| 20260904152806 | 86 | 254 | 4.0 | 7.0 | 0.00 | 0.00 | 0.00 | 48 | 1015.7 |
| 20260904152616 | 86 | 0 | 1.0 | 7.0 | 0.00 | 0.00 | 0.00 | 48 | 1015.7 |
| 20260904151805 | 85 | 0 | 3.0 | 5.0 | 0.00 | 0.00 | 0.00 | 49 | 1015.8 |
| 20260904151305 | 84 | 0 | 0.0 | 5.0 | 0.00 | 0.00 | 0.00 | 52 | 1015.8 |
| 20260904151216 | 83 | 244 | 1.0 | 5.0 | 0.00 | 0.00 | 0.00 | 53 | 1015.7 |
| 20260904150307 | 82 | 231 | 0.0 | 4.0 | 0.00 | 0.00 | 0.00 | 54 | 1015.8 |
| 20260904145805 | 82 | 149 | 0.0 | 9.0 | 0.00 | 0.00 | 0.00 | 54 | 1015.7 |
| 20260904145306 | 81 | 172 | 3.0 | 9.0 | 0.00 | 0.00 | 0.00 | 56 | 1015.7 |
| 20260904144804 | 80 | 173 | 2.0 | 7.0 | 0.00 | 0.00 | 0.00 | 55 | 1015.8 |
| 20260904144304 | 80 | 128 | 3.0 | 6.0 | 0.00 | 0.00 | 0.00 | 57 | 1015.7 |
| 20260904143807 | 80 | 131 | 3.0 | 5.0 | 0.00 | 0.00 | 0.00 | 57 | 1015.8 |
| 20260904143643 | 79 | 164 | 3.0 | 5.0 | 0.00 | 0.00 | 0.00 | 58 | 1015.7 |
| 20260904143156 | 79 | 103 | 3.0 | 5.0 | 0.00 | 0.00 | 0.00 | 59 | 1015.7 |
| 20260904142307 | 78 | 157 | 3.0 | 5.0 | 0.00 | 0.00 | 0.00 | 61 | 1015.8 |
| 20260904141804 | 77 | 94 | 2.0 | 4.0 | 0.00 | 0.00 | 0.00 | 62 | 1015.6 |
| 20260904141304 | 76 | 151 | 2.0 | 3.0 | 0.00 | 0.00 | 0.00 | 63 | 1015.6 |
| 20260904141154 | 76 | 145 | 1.0 | 4.0 | 0.00 | 0.00 | 0.00 | 64 | 1015.7 |
| 20260904140305 | 76 | 102 | 1.0 | 4.0 | 0.00 | 0.00 | 0.00 | 65 | 1015.7 |
| 20260904135807 | 75 | 102 | 3.0 | 4.0 | 0.00 | 0.00 | 0.00 | 66 | 1015.7 |
| 20260904135306 | 74 | 97 | 0.0 | 5.0 | 0.00 | 0.00 | 0.00 | 68 | 1015.8 |
| 20260904134805 | 74 | 102 | 3.0 | 5.0 | 0.00 | 0.00 | 0.00 | 69 | 1015.7 |
| 20260904134304 | 73 | 124 | 2.0 | 5.0 | 0.00 | 0.00 | 0.00 | 70 | 1015.8 |
| 20260904133804 | 72 | 157 | 2.0 | 3.0 | 0.00 | 0.00 | 0.00 | 71 | 1015.7 |
| 20260904133305 | 72 | 127 | 0.0 | 5.0 | 0.00 | 0.00 | 0.00 | 72 | 1015.7 |
| 20260904132806 | 71 | 97 | 3.0 | 5.0 | 0.00 | 0.00 | 0.00 | 72 | 1015.6 |
| 20260904132307 | 71 | 104 | 2.0 | 4.0 | 0.00 | 0.00 | 0.00 | 73 | 1015.6 |
| 20260904132037 | 71 | 148 | 2.0 | 4.0 | 0.00 | 0.00 | 0.00 | 73 | 1015.6 |
| 20260904131807 | 71 | 148 | 2.0 | 4.0 | 0.00 | 0.00 | 0.00 | 73 | 1015.6 |
| 20260904131306 | 71 | 120 | 3.0 | 4.0 | 0.00 | 0.00 | 0.00 | 73 | 1015.5 |
| 20260904131025 | 71 | 99 | 0.0 | 0.0 | 0.00 | 0.00 | 0.00 | 73 | 1015.4 |
| 20260904130809 | 71 | 99 | 0.0 | 0.0 | 0.00 | 0.00 | 0.00 | 73 | 1015.4 |
| 20260904130305 | 70 | 151 | 0.0 | 1.0 | 0.00 | 0.00 | 0.00 | 73 | 1015.4 |
| 20260904125804 | 70 | 161 | 0.0 | 3.0 | 0.00 | 0.00 | 0.00 | 73 | 1015.3 |
| 20260904125305 | 71 | 176 | 1.0 | 4.0 | 0.00 | 0.00 | 0.00 | 72 | 1015.3 |
| 20260904124804 | 71 | 171 | 2.0 | 4.0 | 0.00 | 0.00 | 0.00 | 72 | 1015.3 |
| 20260904124334 | 71 | 173 | 2.0 | 6.0 | 0.00 | 0.00 | 0.00 | 71 | 1015.3 |
| 20260904123926 | 71 | 144 | 0.0 | 6.0 | 0.00 | 0.00 | 0.00 | 71 | 1015.2 |
| 20260904123024 | 72 | 169 | 2.0 | 6.0 | 0.00 | 0.00 | 0.00 | 70 | 1015.1 |
| 20260904122925 | 71 | 144 | 2.0 | 4.0 | 0.00 | 0.00 | 0.00 | 70 | 1015.1 |
| 20260904121805 | 72 | 159 | 1.0 | 6.0 | 0.00 | 0.00 | 0.00 | 70 | 1014.9 |
| 20260904121304 | 72 | 207 | 4.0 | 6.0 | 0.00 | 0.00 | 0.00 | 70 | 1015.1 |
| 20260904121140 | 72 | 171 | 3.0 | 6.0 | 0.00 | 0.00 | 0.00 | 70 | 1014.9 |
| 20260904120658 | 72 | 196 | 3.0 | 9.0 | 0.00 | 0.00 | 0.00 | 70 | 1014.8 |
| 20260904120139 | 72 | 196 | 3.0 | 9.0 | 0.00 | 0.00 | 0.00 | 70 | 1014.8 |
| 20260904115306 | 72 | 165 | 2.0 | 7.0 | 0.00 | 0.00 | 0.00 | 70 | 1014.9 |
| 20260904114806 | 72 | 228 | 3.0 | 6.0 | 0.00 | 0.00 | 0.00 | 70 | 1014.8 |
| 20260904114641 | 72 | 124 | 2.0 | 5.0 | 0.00 | 0.00 | 0.00 | 70 | 1015.1 |
| 20260904114153 | 72 | 173 | 3.0 | 6.0 | 0.00 | 0.00 | 0.00 | 71 | 1014.9 |
| 20260904113304 | 72 | 204 | 3.0 | 6.0 | 0.00 | 0.00 | 0.00 | 71 | 1014.9 |
| 20260904112806 | 72 | 180 | 4.0 | 7.0 | 0.00 | 0.00 | 0.00 | 71 | 1014.9 |
| 20260904112306 | 72 | 173 | 3.0 | 7.0 | 0.00 | 0.00 | 0.00 | 71 | 1014.8 |
| 20260904111806 | 72 | 176 | 2.0 | 4.0 | 0.00 | 0.00 | 0.00 | 71 | 1014.7 |
| 20260904111644 | 72 | 178 | 2.0 | 5.0 | 0.00 | 0.00 | 0.00 | 70 | 1014.7 |
| 20260904110805 | 73 | 185 | 1.0 | 5.0 | 0.00 | 0.00 | 0.00 | 70 | 1014.6 |
| 20260904110305 | 73 | 147 | 1.0 | 5.0 | 0.00 | 0.00 | 0.00 | 70 | 1014.5 |
| 20260904105804 | 73 | 147 | 3.0 | 5.0 | 0.00 | 0.00 | 0.00 | 70 | 1014.5 |
| 20260904105306 | 72 | 158 | 2.0 | 5.0 | 0.00 | 0.00 | 0.00 | 70 | 1014.5 |
| 20260904104805 | 72 | 144 | 3.0 | 6.0 | 0.00 | 0.00 | 0.00 | 70 | 1014.6 |
| 20260904104305 | 72 | 141 | 2.0 | 6.0 | 0.00 | 0.00 | 0.00 | 70 | 1014.5 |
| 20260904103804 | 73 | 131 | 2.0 | 6.0 | 0.00 | 0.00 | 0.00 | 70 | 1014.5 |
| 20260904103305 | 73 | 135 | 3.0 | 6.0 | 0.00 | 0.00 | 0.00 | 70 | 1014.5 |
| 20260904102804 | 72 | 87 | 2.0 | 5.0 | 0.00 | 0.00 | 0.00 | 70 | 1014.5 |
| 20260904102306 | 72 | 154 | 2.0 | 5.0 | 0.00 | 0.00 | 0.00 | 70 | 1014.5 |
| 20260904101805 | 72 | 118 | 3.0 | 6.0 | 0.00 | 0.00 | 0.00 | 70 | 1014.4 |
| 20260904101531 | 72 | 137 | 3.0 | 6.0 | 0.00 | 0.00 | 0.00 | 70 | 1014.3 |
| 20260904100805 | 72 | 118 | 3.0 | 6.0 | 0.00 | 0.00 | 0.00 | 71 | 1014.4 |
| 20260904100640 | 72 | 155 | 2.0 | 6.0 | 0.00 | 0.00 | 0.00 | 70 | 1014.2 |
| 20260904095804 | 72 | 110 | 3.0 | 6.0 | 0.00 | 0.00 | 0.00 | 71 | 1014.2 |
| 20260904095306 | 72 | 113 | 2.0 | 6.0 | 0.00 | 0.00 | 0.00 | 70 | 1014.2 |
| 20260904094803 | 72 | 92 | 4.0 | 6.0 | 0.00 | 0.00 | 0.00 | 70 | 1014.0 |
| 20260904094305 | 72 | 124 | 3.0 | 6.0 | 0.00 | 0.00 | 0.00 | 69 | 1014.2 |
| 20260904093804 | 72 | 127 | 4.0 | 5.0 | 0.00 | 0.00 | 0.00 | 69 | 1014.2 |
| 20260904093305 | 72 | 123 | 3.0 | 5.0 | 0.00 | 0.00 | 0.00 | 70 | 1014.0 |
| 20260904092804 | 72 | 110 | 3.0 | 6.0 | 0.00 | 0.00 | 0.00 | 70 | 1014.2 |
| 20260904092306 | 72 | 107 | 3.0 | 6.0 | 0.00 | 0.00 | 0.00 | 70 | 1014.2 |
| 20260904091808 | 71 | 123 | 2.0 | 5.0 | 0.00 | 0.00 | 0.00 | 70 | 1014.2 |
| 20260904091305 | 72 | 138 | 2.0 | 7.0 | 0.00 | 0.00 | 0.00 | 69 | 1014.2 |
| 20260904090804 | 72 | 116 | 1.0 | 7.0 | 0.00 | 0.00 | 0.00 | 68 | 1014.2 |
| 20260904090306 | 72 | 128 | 2.0 | 7.0 | 0.00 | 0.00 | 0.00 | 68 | 1014.2 |
| 20260904090135 | 73 | 134 | 3.0 | 6.0 | 0.00 | 0.00 | 0.00 | 67 | 1014.0 |
| 20260904085306 | 73 | 121 | 2.0 | 9.0 | 0.00 | 0.00 | 0.00 | 67 | 1014.0 |
| 20260904084806 | 73 | 142 | 2.0 | 9.0 | 0.00 | 0.00 | 0.00 | 67 | 1014.2 |
| 20260904084304 | 73 | 162 | 2.0 | 6.0 | 0.00 | 0.00 | 0.00 | 66 | 1014.2 |
| 20260904083804 | 73 | 155 | 2.0 | 6.0 | 0.00 | 0.00 | 0.00 | 66 | 1014.2 |
| 20260904083633 | 73 | 175 | 2.0 | 6.0 | 0.00 | 0.00 | 0.00 | 66 | 1014.3 |
| 20260904082804 | 73 | 107 | 3.0 | 6.0 | 0.00 | 0.00 | 0.00 | 67 | 1014.3 |
| 20260904082640 | 73 | 162 | 2.0 | 6.0 | 0.00 | 0.00 | 0.00 | 67 | 1014.3 |
| 20260904082141 | 73 | 148 | 3.0 | 5.0 | 0.00 | 0.00 | 0.00 | 67 | 1014.3 |
| 20260904081632 | 73 | 125 | 2.0 | 5.0 | 0.00 | 0.00 | 0.00 | 66 | 1014.3 |
| 20260904080804 | 73 | 157 | 3.0 | 5.0 | 0.00 | 0.00 | 0.00 | 66 | 1014.2 |
| 20260904080306 | 74 | 130 | 2.0 | 5.0 | 0.00 | 0.00 | 0.00 | 66 | 1014.3 |
| 20260904075807 | 73 | 127 | 2.0 | 6.0 | 0.00 | 0.00 | 0.00 | 66 | 1014.3 |
| 20260904075307 | 73 | 145 | 3.0 | 7.0 | 0.00 | 0.00 | 0.00 | 66 | 1014.2 |
| 20260904074804 | 73 | 140 | 3.0 | 7.0 | 0.00 | 0.00 | 0.00 | 66 | 1014.3 |
| 20260904074305 | 73 | 162 | 2.0 | 7.0 | 0.00 | 0.00 | 0.00 | 66 | 1014.3 |
| 20260904073805 | 73 | 114 | 4.0 | 7.0 | 0.00 | 0.00 | 0.00 | 66 | 1014.3 |
| 20260904073304 | 74 | 117 | 3.0 | 7.0 | 0.00 | 0.00 | 0.00 | 65 | 1014.2 |
| 20260904072804 | 74 | 89 | 3.0 | 9.0 | 0.00 | 0.00 | 0.00 | 65 | 1014.3 |
| 20260904072306 | 74 | 147 | 3.0 | 9.0 | 0.00 | 0.00 | 0.00 | 65 | 1014.4 |
| 20260904071804 | 74 | 148 | 2.0 | 9.0 | 0.00 | 0.00 | 0.00 | 65 | 1014.3 |
| 20260904071304 | 74 | 159 | 4.0 | 9.0 | 0.00 | 0.00 | 0.00 | 65 | 1014.4 |
| 20260904070805 | 74 | 180 | 3.0 | 9.0 | 0.00 | 0.00 | 0.00 | 64 | 1014.4 |
| 20260904070609 | 74 | 179 | 4.0 | 9.0 | 0.00 | 0.00 | 0.00 | 64 | 1014.4 |
| 20260904070141 | 74 | 149 | 3.0 | 7.0 | 0.00 | 0.00 | 0.00 | 64 | 1014.4 |
| 20260904065639 | 74 | 178 | 3.0 | 9.0 | 0.00 | 0.00 | 0.00 | 64 | 1014.6 |
| 20260904064805 | 74 | 151 | 4.0 | 9.0 | 0.00 | 0.00 | 0.00 | 64 | 1014.5 |
| 20260904064305 | 75 | 113 | 3.0 | 7.0 | 0.00 | 0.00 | 0.00 | 63 | 1014.5 |
| 20260904063803 | 75 | 151 | 4.0 | 7.0 | 0.00 | 0.00 | 0.00 | 63 | 1014.5 |
| 20260904063312 | 75 | 169 | 4.0 | 10.0 | 0.00 | 0.00 | 0.00 | 63 | 1014.6 |
| 20260904062805 | 75 | 106 | 4.0 | 10.0 | 0.00 | 0.00 | 0.00 | 63 | 1014.7 |
| 20260904062306 | 75 | 124 | 4.0 | 9.0 | 0.00 | 0.00 | 0.00 | 62 | 1014.6 |
| 20260904062104 | 75 | 190 | 3.0 | 9.0 | 0.00 | 0.00 | 0.00 | 62 | 1014.7 |
| 20260904061635 | 76 | 161 | 3.0 | 9.0 | 0.00 | 0.00 | 0.00 | 61 | 1014.7 |
| 20260904060804 | 76 | 137 | 2.0 | 7.0 | 0.00 | 0.00 | 0.00 | 60 | 1014.6 |
| 20260904060630 | 76 | 173 | 4.0 | 7.0 | 0.00 | 0.00 | 0.00 | 60 | 1014.6 |
| 20260904055804 | 77 | 135 | 3.0 | 7.0 | 0.00 | 0.00 | 0.00 | 59 | 1014.6 |
| 20260904055306 | 77 | 147 | 3.0 | 9.0 | 0.00 | 0.00 | 0.00 | 59 | 1014.5 |
| 20260904054804 | 77 | 142 | 4.0 | 9.0 | 0.00 | 0.00 | 0.00 | 59 | 1014.6 |
| 20260904054303 | 77 | 130 | 3.0 | 9.0 | 0.00 | 0.00 | 0.00 | 58 | 1014.7 |
| 20260904053804 | 77 | 117 | 3.0 | 7.0 | 0.00 | 0.00 | 0.00 | 58 | 1014.7 |
| 20260904053304 | 77 | 149 | 3.0 | 10.0 | 0.00 | 0.00 | 0.00 | 59 | 1014.7 |
| 20260904052805 | 77 | 214 | 4.0 | 10.0 | 0.00 | 0.00 | 0.00 | 58 | 1014.7 |
| 20260904052307 | 78 | 147 | 3.0 | 9.0 | 0.00 | 0.00 | 0.00 | 57 | 1014.7 |
| 20260904051804 | 78 | 142 | 4.0 | 12.0 | 0.00 | 0.00 | 0.00 | 57 | 1014.7 |
| 20260904051303 | 78 | 165 | 7.0 | 12.0 | 0.00 | 0.00 | 0.00 | 57 | 1014.7 |
| 20260904050804 | 78 | 99 | 4.0 | 10.0 | 0.00 | 0.00 | 0.00 | 57 | 1014.6 |
| 20260904050305 | 78 | 114 | 4.0 | 13.0 | 0.00 | 0.00 | 0.00 | 57 | 1014.6 |
| 20260904045804 | 78 | 118 | 5.0 | 13.0 | 0.00 | 0.00 | 0.00 | 57 | 1014.5 |
| 20260904045307 | 78 | 106 | 4.0 | 14.0 | 0.00 | 0.00 | 0.00 | 57 | 1014.5 |
| 20260904044806 | 78 | 175 | 6.0 | 14.0 | 0.00 | 0.00 | 0.00 | 56 | 1014.5 |
| 20260904044305 | 78 | 152 | 5.0 | 13.0 | 0.00 | 0.00 | 0.00 | 56 | 1014.6 |
| 20260904043804 | 78 | 127 | 7.0 | 13.0 | 0.00 | 0.00 | 0.00 | 56 | 1014.7 |
| 20260904043307 | 77 | 134 | 7.0 | 14.0 | 0.00 | 0.00 | 0.00 | 55 | 1014.7 |
| 20260904043134 | 78 | 128 | 7.0 | 14.0 | 0.00 | 0.00 | 0.00 | 55 | 1014.6 |
| 20260904042306 | 78 | 134 | 7.0 | 13.0 | 0.00 | 0.00 | 0.00 | 55 | 1014.6 |
| 20260904041804 | 78 | 131 | 6.0 | 13.0 | 0.00 | 0.00 | 0.00 | 54 | 1014.6 |
| 20260904041305 | 78 | 133 | 7.0 | 12.0 | 0.00 | 0.00 | 0.00 | 55 | 1014.5 |
| 20260904040803 | 78 | 111 | 6.0 | 13.0 | 0.00 | 0.00 | 0.00 | 55 | 1014.5 |
| 20260904040305 | 78 | 111 | 7.0 | 17.0 | 0.00 | 0.00 | 0.00 | 55 | 1014.6 |
| 20260904035804 | 77 | 99 | 8.0 | 17.0 | 0.00 | 0.00 | 0.00 | 56 | 1014.5 |
| 20260904035306 | 77 | 103 | 4.0 | 12.0 | 0.00 | 0.00 | 0.00 | 56 | 1014.6 |
| 20260904035142 | 77 | 140 | 5.0 | 12.0 | 0.00 | 0.00 | 0.00 | 55 | 1014.5 |
| 20260904034305 | 78 | 140 | 5.0 | 12.0 | 0.00 | 0.00 | 0.00 | 54 | 1014.6 |
| 20260904033805 | 78 | 93 | 5.0 | 12.0 | 0.00 | 0.00 | 0.00 | 54 | 1014.5 |
| 20260904033306 | 78 | 134 | 5.0 | 9.0 | 0.00 | 0.00 | 0.00 | 54 | 1014.6 |
| 20260904032804 | 78 | 96 | 4.0 | 9.0 | 0.00 | 0.00 | 0.00 | 55 | 1014.6 |
| 20260904032306 | 78 | 148 | 4.0 | 12.0 | 0.00 | 0.00 | 0.00 | 54 | 1014.6 |
| 20260904031803 | 78 | 117 | 7.0 | 13.0 | 0.00 | 0.00 | 0.00 | 54 | 1014.4 |
| 20260904031303 | 78 | 90 | 6.0 | 13.0 | 0.00 | 0.00 | 0.00 | 54 | 1014.4 |
| 20260904030805 | 78 | 137 | 8.0 | 14.0 | 0.00 | 0.00 | 0.00 | 54 | 1014.3 |
| 20260904030306 | 79 | 116 | 7.0 | 14.0 | 0.00 | 0.00 | 0.00 | 53 | 1014.3 |
| 20260904025806 | 79 | 116 | 6.0 | 13.0 | 0.00 | 0.00 | 0.00 | 53 | 1014.2 |
| 20260904025306 | 79 | 110 | 6.0 | 13.0 | 0.00 | 0.00 | 0.00 | 53 | 1014.2 |
| 20260904024803 | 79 | 128 | 5.0 | 12.0 | 0.00 | 0.00 | 0.00 | 53 | 1014.0 |
| 20260904024529 | 80 | 130 | 7.0 | 12.0 | 0.00 | 0.00 | 0.00 | 50 | 1014.0 |
| 20260904023805 | 80 | 109 | 6.0 | 11.0 | 0.00 | 0.00 | 0.00 | 46 | 1014.0 |
| 20260904023639 | 81 | 106 | 5.0 | 7.0 | 0.00 | 0.00 | 0.00 | 45 | 1013.9 |
| 20260904022804 | 82 | 116 | 4.0 | 7.0 | 0.00 | 0.00 | 0.00 | 44 | 1013.8 |
| 20260904022306 | 81 | 124 | 3.0 | 9.0 | 0.00 | 0.00 | 0.00 | 44 | 1013.6 |
| 20260904021804 | 81 | 109 | 4.0 | 9.0 | 0.00 | 0.00 | 0.00 | 45 | 1013.7 |
| 20260904021302 | 81 | 99 | 6.0 | 9.0 | 0.00 | 0.00 | 0.00 | 46 | 1013.6 |
| 20260904021132 | 81 | 94 | 5.0 | 12.0 | 0.00 | 0.00 | 0.00 | 45 | 1013.6 |
| 20260904020304 | 81 | 89 | 6.0 | 14.0 | 0.00 | 0.00 | 0.00 | 47 | 1013.5 |
| 20260904015804 | 80 | 103 | 7.0 | 14.0 | 0.00 | 0.00 | 0.00 | 48 | 1013.6 |
| 20260904015559 | 80 | 106 | 6.0 | 10.0 | 0.00 | 0.00 | 0.00 | 50 | 1013.6 |
| 20260904014806 | 80 | 82 | 4.0 | 9.0 | 0.00 | 0.00 | 0.00 | 52 | 1013.5 |
| 20260904014303 | 80 | 149 | 6.0 | 14.0 | 0.00 | 0.00 | 0.00 | 51 | 1013.5 |
| 20260904013804 | 80 | 107 | 7.0 | 14.0 | 0.00 | 0.00 | 0.00 | 51 | 1013.4 |
| 20260904013308 | 80 | 73 | 7.0 | 13.0 | 0.00 | 0.00 | 0.00 | 50 | 1013.4 |
| 20260904012804 | 81 | 124 | 4.0 | 13.0 | 0.00 | 0.00 | 0.00 | 50 | 1013.5 |
| 20260904012647 | 80 | 104 | 7.0 | 13.0 | 0.00 | 0.00 | 0.00 | 52 | 1013.5 |
| 20260904011804 | 80 | 120 | 4.0 | 23.0 | 0.00 | 0.00 | 0.00 | 53 | 1013.4 |
| 20260904011304 | 80 | 131 | 7.0 | 23.0 | 0.00 | 0.00 | 0.00 | 54 | 1013.4 |
| 20260904010805 | 80 | 141 | 9.0 | 21.0 | 0.00 | 0.00 | 0.00 | 53 | 1013.5 |
| 20260904010710 | 81 | 138 | 11.0 | 21.0 | 0.00 | 0.00 | 0.00 | 52 | 1013.5 |
| 20260904005804 | 81 | 133 | 10.0 | 19.0 | 0.00 | 0.00 | 0.00 | 52 | 1013.4 |
| 20260904005649 | 81 | 206 | 8.0 | 18.0 | 0.00 | 0.00 | 0.00 | 53 | 1013.4 |
| 20260904005140 | 81 | 140 | 6.0 | 18.0 | 0.00 | 0.00 | 0.00 | 53 | 1013.6 |
| 20260904004303 | 81 | 138 | 8.0 | 17.0 | 0.00 | 0.00 | 0.00 | 53 | 1013.7 |
| 20260904003806 | 82 | 159 | 8.0 | 15.0 | 0.00 | 0.00 | 0.00 | 52 | 1013.7 |
| 20260904003534 | 84 | 176 | 9.0 | 15.0 | 0.00 | 0.00 | 0.00 | 46 | 1013.8 |
| 20260904003429 | 83 | 154 | 6.0 | 15.0 | 0.00 | 0.00 | 0.00 | 48 | 1013.8 |
| 20260904002640 | 84 | 145 | 5.0 | 16.0 | 0.00 | 0.00 | 0.00 | 45 | 1013.6 |
| 20260904002038 | 83 | 190 | 7.0 | 16.0 | 0.00 | 0.00 | 0.00 | 49 | 1013.3 |
| 20260904001935 | 84 | 111 | 8.0 | 16.0 | 0.00 | 0.00 | 0.00 | 47 | 1013.4 |
| 20260904000803 | 83 | 100 | 8.0 | 17.0 | 0.00 | 0.00 | 0.00 | 49 | 1013.3 |
| 20260904000305 | 83 | 134 | 9.0 | 20.0 | 0.00 | 0.00 | 0.00 | 49 | 1013.2 |
| 20260903235803 | 84 | 99 | 11.0 | 20.0 | 0.00 | 0.00 | 0.00 | 48 | 1013.3 |
| 20260903235305 | 85 | 110 | 10.0 | 21.0 | 0.00 | 0.00 | 0.00 | 46 | 1013.3 |
| 20260903234805 | 85 | 123 | 13.0 | 21.0 | 0.00 | 0.00 | 0.00 | 46 | 1013.2 |
| 20260903234304 | 85 | 124 | 10.0 | 20.0 | 0.00 | 0.00 | 0.00 | 47 | 1013.2 |
| 20260903233805 | 85 | 121 | 11.0 | 21.0 | 0.00 | 0.00 | 0.00 | 47 | 1013.2 |
| 20260903233303 | 86 | 103 | 12.0 | 21.0 | 0.00 | 0.00 | 0.00 | 46 | 1013.2 |
| 20260903232803 | 86 | 71 | 9.0 | 21.0 | 0.00 | 0.00 | 0.00 | 44 | 1013.2 |
| 20260903232306 | 87 | 114 | 10.0 | 20.0 | 0.00 | 0.00 | 0.00 | 41 | 1013.3 |
| 20260903231814 | 87 | 114 | 9.0 | 23.0 | 0.00 | 0.00 | 0.00 | 41 | 1012.9 |
| 20260903231458 | 86 | 107 | 11.0 | 21.0 | 0.00 | 0.00 | 0.00 | 43 | 1012.9 |
| 20260903231403 | 86 | 82 | 12.0 | 23.0 | 0.00 | 0.00 | 0.00 | 42 | 1012.8 |
| 20260903230649 | 86 | 102 | 11.0 | 19.0 | 0.00 | 0.00 | 0.00 | 44 | 1012.8 |
| 20260903225803 | 86 | 120 | 13.0 | 19.0 | 0.00 | 0.00 | 0.00 | 44 | 1012.8 |
| 20260903225306 | 88 | 75 | 9.0 | 16.0 | 0.00 | 0.00 | 0.00 | 42 | 1012.7 |
| 20260903224803 | 88 | 137 | 7.0 | 14.0 | 0.00 | 0.00 | 0.00 | 40 | 1012.8 |
| 20260903224303 | 89 | 125 | 6.0 | 18.0 | 0.00 | 0.00 | 0.00 | 39 | 1013.0 |
| 20260903223804 | 92 | 120 | 10.0 | 18.0 | 0.00 | 0.00 | 0.00 | 33 | 1013.2 |
| 20260903223304 | 94 | 254 | 6.0 | 14.0 | 0.00 | 0.00 | 0.00 | 26 | 1012.8 |
| 20260903222805 | 95 | 231 | 5.0 | 11.0 | 0.00 | 0.00 | 0.00 | 27 | 1012.4 |
| 20260903222305 | 95 | 266 | 6.0 | 15.0 | 0.00 | 0.00 | 0.00 | 27 | 1012.3 |
| 20260903221803 | 94 | 266 | 6.0 | 15.0 | 0.00 | 0.00 | 0.00 | 28 | 1012.3 |
| 20260903221304 | 94 | 248 | 9.0 | 15.0 | 0.00 | 0.00 | 0.00 | 27 | 1012.3 |
| 20260903220805 | 94 | 295 | 8.0 | 16.0 | 0.00 | 0.00 | 0.00 | 26 | 1012.2 |
| 20260903220303 | 93 | 305 | 6.0 | 21.0 | 0.00 | 0.00 | 0.00 | 27 | 1012.3 |
| 20260903215803 | 93 | 261 | 9.0 | 21.0 | 0.00 | 0.00 | 0.00 | 26 | 1012.3 |
| 20260903215306 | 94 | 252 | 7.0 | 19.0 | 0.00 | 0.00 | 0.00 | 28 | 1012.3 |
| 20260903214804 | 93 | 310 | 7.0 | 16.0 | 0.00 | 0.00 | 0.00 | 30 | 1012.5 |
| 20260903214306 | 94 | 251 | 8.0 | 21.0 | 0.00 | 0.00 | 0.00 | 29 | 1012.6 |
| 20260903214147 | 95 | 274 | 12.0 | 21.0 | 0.00 | 0.00 | 0.00 | 28 | 1012.7 |
| 20260903213531 | 95 | 255 | 9.0 | 17.0 | 0.00 | 0.00 | 0.00 | 26 | 1012.5 |
| 20260903212805 | 95 | 276 | 7.0 | 12.0 | 0.00 | 0.00 | 0.00 | 27 | 1012.7 |
| 20260903212306 | 95 | 282 | 4.0 | 12.0 | 0.00 | 0.00 | 0.00 | 31 | 1012.7 |
| 20260903211807 | 95 | 272 | 4.0 | 11.0 | 0.00 | 0.00 | 0.00 | 30 | 1012.7 |
| 20260903211303 | 94 | 261 | 6.0 | 15.0 | 0.00 | 0.00 | 0.00 | 30 | 1012.7 |
| 20260903210803 | 94 | 269 | 7.0 | 15.0 | 0.00 | 0.00 | 0.00 | 30 | 1012.7 |
| 20260903210307 | 95 | 243 | 6.0 | 15.0 | 0.00 | 0.00 | 0.00 | 29 | 1012.7 |